Hourly Data Report for October 25, 2015

All times are specified in Local Standard Time (LST). Add 1 hour to adjust for Daylight Saving Time where and when it is observed.

RESOLUTE BAY A
NUNAVUT

74°43'01.000" N
94°58'10.000" W
67.70 m
2403498
71924
YRB

Download Data

Hourly Data (October 2015)
Hourly Data Report for October 25, 2015
Temp Definition
°C
Dew Point Temp Definition
°C
Rel Hum Definition
%
Wind Dir Definition
10's deg

Wind Spd Definition
km/h
Visibility Definition
km
Stn Press Definition
kPa
Hmdx Definition


Wind Chill Definition


Weather Definition


TIME
00:00 Legend Double Dagger -21.4 -23.8 81 35 43 9.7 99.35   -36 Blowing Snow
01:00 Legend Double Dagger -20.9 -23.4 81 34 49 8.1 99.31   -37 Blowing Snow
02:00 Legend Double Dagger -20.8 -23.3 81 35 49 6.4 99.27   -36 Blowing Snow
03:00 Legend Double Dagger -21.1 -23.6 81 35 39 8.1 99.28   -35 Blowing Snow
04:00 Legend Double Dagger -21.2 -23.8 80 36 38 11.3 99.31   -35 Blowing Snow
05:00 Legend Double Dagger -21.5 -24.1 80 36 35 11.3 99.28   -35 Ice Crystals,Blowing Snow
06:00 Legend Double Dagger -21.7 -24.3 80 33 39 6.4 99.32   -36 Ice Crystals,Blowing Snow
07:00 Legend Double Dagger -22.0 -24.4 81 35 40 1.6 99.26   -37 Blowing Snow
08:00 Legend Double Dagger -21.7 -24.3 80 2 52 1.6 99.24   -38 Blowing Snow
09:00 Legend Double Dagger -21.1 -23.7 80 35 37 6.4 99.23   -35 Blowing Snow
10:00 Legend Double Dagger -21.6 -24.5 78 34 37 6.4 99.15   -36 Blowing Snow
11:00 Legend Double Dagger -20.4 -22.9 81 36 45 12.9 99.12   -35 Blowing Snow
12:00 Legend Double Dagger -19.8 -22.3 81 35 40 12.9 99.16   -34 Blowing Snow
13:00 Legend Double Dagger -18.7 -21.1 82 36 48 16.1 99.19   -33 LegendNANA
14:00 Legend Double Dagger -18.5 -20.9 82 36 49 6.4 99.19   -33 Blowing Snow
15:00 Legend Double Dagger -16.0 -18.0 85 36 41 1.6 99.26   -29 Snow,Blowing Snow
16:00 Legend Double Dagger -15.2 -17.2 85 35 40 0.8 99.28   -28 Snow,Blowing Snow
17:00 Legend Double Dagger -17.1 -19.2 84 35 50 6.4 99.34   -31 Blowing Snow
18:00 Legend Double Dagger -16.7 -18.7 85 33 36 1.6 99.37   -29 Snow,Blowing Snow
19:00 Legend Double Dagger -16.5 -18.5 85 36 47 2.4 99.35   -30 Snow,Blowing Snow
20:00 Legend Double Dagger -15.8 -18.2 82 1 46 24.1 99.37   -29 Blowing Snow
21:00 Legend Double Dagger -16.0 -18.3 83 1 66 0.4 99.36   -31 Blowing Snow
22:00 Legend Double Dagger -17.0 -19.1 84 2 65 0.4 99.39   -33 Blowing Snow
23:00 Legend Double Dagger -17.4 -19.5 84 1 57 0.4 99.42   -33 Blowing Snow

Notes on Data Quality.

Legend

  • E = Estimated
  • M = Missing
  • NA = Not Available
  • ‡ = Partner data that is not subject to review by the National Climate Archives
Date modified: